Regional Weather Roundup
Issued by NWS Charleston, SC

Current Version | Previous Version | Graphics & Text | Print | Product List | Glossary On
Versions: 1 2 3 4 5 6 7 8 9 10 11 12 13 14 15 16 17 18 19 20 21 22 23 24 25 26 27 28 29 30 31 32 33 34 35 36 37 38 39 40 41 42 43 44 45 46 47 48 49 50
000 ASUS42 KCHS 040512 RWRCHS REGIONAL WEATHER ROUNDUP NATIONAL WEATHER SERVICE CHARLESTON SC 100 AM EDT FRI SEP 04 2015 NOTE: "FAIR" INDICATES FEW OR NO CLOUDS BELOW 12,000 FEET WITH NO SIGNIFICANT WEATHER AND/OR OBSTRUCTIONS TO VISIBILITY. NOT ALL STATIONS ARE QUALITY CONTROLLED BY THE NATIONAL WEATHER SERVICE. USE DATA WITH CAUTION...ESPECIALLY DEWPOINT OBSERVATIONS. SCZ027-030-031-034>040-042>050-040600- ...SOUTHEAST SOUTH CAROLINA... CITY SKY/WX TMP DP RH WIND PRES REMARKS N CHARLESTON MOCLDY 78 74 87 S5 29.92R WATERFRONT PRK N/A 80 77 90 CALM 29.90R MOUNT PLEASANT FAIR 77 75 94 CALM 29.92S JOHNS ISLAND FAIR 77 75 94 CALM 29.92S PINOPOLIS N/A 81 75 83 CALM 29.85S MONCKS CORNER FAIR 77 73 88 CALM 29.93R SUMMERVILLE FAIR 75 75 100 CALM 29.93S BEAUFORT MCAS CLOUDY 79 76 90 SW5 29.92R BEAUFORT ARPT FAIR 79 77 94 S5 29.92R HILTON HEAD IS CLOUDY 77 77 100 SW3 29.93S WALTERBORO PTCLDY 79 73 83 SE3 29.93R ALLENDALE FAIR 77 75 94 CALM 29.92R ...SOUTHERN MIDLANDS AND PEE DEE... CITY SKY/WX TMP DP RH WIND PRES REMARKS GEORGETOWN NOT AVBL KINGSTREE NOT AVBL ORANGEBURG PTCLDY 75 72 90 CALM 29.93R BARNWELL FAIR 75 75 100 CALM 29.93S AIKEN FAIR 72 70 94 CALM 29.97S MANNING FAIR 73 73 100 CALM 29.92S COLUMBIA PTCLDY 76 71 85 W3 29.92R SUMTER CLEAR 74 72 92 E3 29.90R FLORENCE CLEAR 75 71 87 W3 29.91S MYRTLE BEACH MOCLDY 75 70 83 CALM 29.93S N MYRTLE BEACH PTCLDY 73 72 96 CALM 29.91S $$ GAZ063-065-086>088-099>101-113>116-118-119-134>141-150-040600- ...SOUTHEAST GEORGIA... CITY SKY/WX TMP DP RH WIND PRES REMARKS SAVANNAH ARPT MOCLDY 79 76 90 SW8 29.93R HUNTER AAF CLOUDY 79 79 100 SW5 29.90S FORT STEWART PTCLDY 79 77 93 CALM 29.91F STATESBORO MOCLDY 76 32 20 CALM 29.93R SYLVANIA NOT AVBL CLAXTON NOT AVBL ...CSRA...CENTRAL AND FAR SOUTHEAST GEORGIA... CITY SKY/WX TMP DP RH WIND PRES REMARKS THOMSON N/A 76 76 100 CALM 29.98S AUGUSTA-BUSH FOG 73 73 100 CALM 29.92S VSB 1/2 AUGUSTA-DANIEL CLEAR 81 74 79 CALM 29.94S SWAINSBORO FAIR 75 73 94 CALM 29.95R VIDALIA PTCLDY 77 73 88 CALM 29.94S EASTMAN FAIR 75 75 100 CALM 29.97S FOG HAZLEHURST FAIR 78 78 100 CALM 29.94S ALMA CLEAR 76 75 97 CALM 29.94S FOG WAYCROSS CLEAR 79 79 100 CALM 29.94S JESUP FAIR 79 77 94 CALM 29.94F BAXLEY FAIR 77 75 94 CALM 29.94S BRUNSWICK MOCLDY 75 73 94 CALM 29.94F SAINT SIMONS MOCLDY 76 75 97 CALM 29.93F $$ SCZ027-028-034-036>038-045-046-048>050-GAZ119-141-040600- ...LAKE AND SUPPLEMENTAL COASTAL OBSERVATIONS... STATION/POSITION TIME TEMP WIND PRES WAVE SWELL AIR SEA DIR/SP/G HT/PER HT/PER/DIR (UTC) (F) (DEG/KT/KT) (MB) (FT/S) (FT/S/D) UPR LAKE MARION NOT AVBL WINYAH BAY NOT AVBL LAKE MURRAY 0400 80 310/ 2/ 3 1012.5F ACE BASIN NERRS NOT AVBL FORT PULASKI 0400 80 83 220/ 2/ 3 1013.7F SAPELO ISLAND 0400 79 160/ 3 1013.0S $$ ANZ835-935-AMZ111-154-330-350-352-354-370-450-454-472-040600- ...C-MAN AND BUOY OBSERVATIONS... STATION/POSITION TIME TEMP WIND PRES WAVE SWELL AIR SEA DIR/SP/G HT/PER HT/PER/DIR (UTC) (F) (DEG/KT/KT) (MB) (FT/S) (FT/S/D) BUOY 41004 0450 81 84 190/ 4/ 4 1013.1R 2/ 4 2/ 4 BUOY 41008 0450 82 84 210/ 6/ 6 1013.5R 1/ 8 2/100/ 8 FOLLY BEACH CMAN 0400 80 230/ 2/ 2 1013.2R CAPERS NEARSHORE 0408 82 190/ 8/ 8 1012.9F FRIPP NEARSHORE 0400 82 210/ 6/ 6 1012.7R STATION/POSITION TIME TEMP WIND PRES WAVE SWELL AIR SEA DIR/SP/G HT/PER HT/PER/DIR (UTC) (F) (DEG/KT/KT) (MB) (FT/S) (FT/S/D) 5E ST. MARYS GA 0421 85 N/A 1/ 8 FRYING PAN BUOY 0450 81 81 290/ 4/ 4 1013.2R 1/ 3 2/120/ 8 BUOY 41025 0450 81 85 300/ 6/ 8 1012.7S 1/11 2/ 40/11 CAPE LOOKOUT NC 0400 80 270/ 3/ 3 1012.4R BUOY 41002 0450 82 84 300/ 2/ 4 1013.0F 2/12 2/ 90/12 BUOY 41010 0420 85 86 240/ 10/ 12 1013.3R ST AUGUSTINE FL 0500 79 84 240/ 3/ 4 1014.3F $$

USA.gov is the U.S. government's official web portal to all federal, state and local government web resources and services.